User: anonymous   Login
Location: Hartman Creek State Park
(44.3257°N, 89.2134°W)
Time: 15:58:39
(UTC-05:00)
Language:

Cosmos 2263 Rocket - Orbit

View from above orbital plane
View from above orbital plane
View from above satellite
View from above satellite

Ground track
Ground track

The orbit data is extracted from the following two-line orbital elements,

1 22803U 93059B   15240.90180526 +.00000046 +00000-0 +47133-4 0  9996
2 22803 070.9897 196.5435 0019179 304.0422 055.8880 14.16721704134793
Epoch (UTC): 28 August 2015 21:38:35
Eccentricity: 0.0019179
inclination: 70.9897°
perigee height: 822 km
apogee height: 850 km
right ascension of ascending node: 196.5435°
argument of perigee: 304.0422°
revolutions per day: 14.16721704
mean anomaly at epoch: 55.8880°
orbit number at epoch: 13479

The dashed part of the orbit path shows where the satellite is in the earth's shadow,  

DLR